User: anonymous   Login
Location: Castillon
(43.0896°N, 0.2156°E)
Time: 18:30:51
(UTC+00:00)
Language:

GP-B - Orbit

View from above orbital plane
View from above orbital plane
View from above satellite
View from above satellite

Ground track
Ground track

The orbit data is extracted from the following two-line orbital elements,

1 28230U 04014A   21263.77418407  .00000132  00000-0  15661-4 0  9995
2 28230  89.8080  87.9685 0002801  74.6279 285.5253 14.78836313396292
Epoch (UTC): 20 September 2021 18:34:49
Eccentricity: 0.0002801
inclination: 89.8080°
perigee height: 631 km
apogee height: 635 km
right ascension of ascending node: 87.9685°
argument of perigee: 74.6279°
revolutions per day: 14.78836313
mean anomaly at epoch: 285.5253°
orbit number at epoch: 39629

The dashed part of the orbit path shows where the satellite is in the earth's shadow,  

DLR